FW7418 Weather Reports


Display with metric or nautical units.
time (UTC)temp
F
wind
direction
speed
MPH
gust
MPH
rain 1hr
in
rain 24hr
in
rain mn
in
humidity
%
barometer
mb
20260508205818 66 294 1.0 2.0 0.00 0.00 0.00 56 1013.5
20260508205314 66 299 0.0 1.0 0.00 0.00 0.00 55 1013.5
20260508204811 66 299 1.0 1.0 0.00 0.00 0.00 57 1013.7
20260508204308 66 282 1.0 1.0 0.00 0.00 0.00 54 1013.9
20260508203804 66 272 1.0 2.0 0.00 0.00 0.00 54 1013.9
20260508203300 66 287 2.0 3.0 0.00 0.00 0.00 53 1013.8
20260508202755 66 299 1.0 2.0 0.00 0.00 0.00 55 1013.9
20260508202253 66 259 2.0 2.0 0.00 0.00 0.00 54 1014.0
20260508201750 66 281 2.0 2.0 0.00 0.00 0.00 55 1014.2
20260508201247 66 281 2.0 2.0 0.00 0.00 0.00 55 1014.0
20260508200743 66 283 2.0 2.0 0.00 0.00 0.00 53 1013.9
20260508200240 66 278 1.0 2.0 0.00 0.00 0.00 54 1013.9
20260508195736 66 286 1.0 2.0 0.00 0.00 0.00 53 1014.3
20260508195232 66 269 2.0 2.0 0.00 0.00 0.00 52 1014.1
20260508194729 66 265 2.0 2.0 0.00 0.00 0.00 51 1014.2
20260508194226 66 276 1.0 2.0 0.00 0.00 0.00 52 1014.3
20260508193723 66 289 1.0 1.0 0.00 0.00 0.00 52 1014.3
20260508193220 66 267 2.0 3.0 0.00 0.00 0.00 53 1014.5
20260508192716 66 260 3.0 5.0 0.00 0.00 0.00 52 1014.3
20260508192214 66 286 2.0 2.0 0.00 0.00 0.00 53 1014.6
20260508191711 67 264 4.0 5.0 0.00 0.00 0.00 51 1014.3
20260508191208 67 272 2.0 2.0 0.00 0.00 0.00 53 1014.6
20260508190705 68 276 3.0 3.0 0.00 0.00 0.00 53 1014.7
20260508190201 68 268 2.0 3.0 0.00 0.00 0.00 51 1014.7
20260508185658 68 257 0.0 1.0 0.00 0.00 0.00 53 1014.7
20260508185155 68 279 2.0 3.0 0.00 0.00 0.00 55 1014.8
20260508184652 67 305 3.0 5.0 0.00 0.00 0.00 54 1014.8
20260508184150 66 243 5.0 7.0 0.00 0.00 0.00 53 1015.1
20260508183646 67 295 5.0 7.0 0.00 0.00 0.00 52 1015.2
20260508183142 67 286 5.0 6.0 0.00 0.00 0.00 52 1015.2
20260508182638 67 272 4.0 5.0 0.00 0.00 0.00 55 1015.4
20260508182135 67 290 4.0 6.0 0.00 0.00 0.00 52 1015.4
20260508181630 66 287 4.0 5.0 0.00 0.00 0.00 55 1015.4
20260508181128 66 299 7.0 8.0 0.00 0.00 0.00 54 1015.2
20260508180625 66 271 4.0 6.0 0.00 0.00 0.00 54 1015.7
20260508180122 66 264 3.0 3.0 0.00 0.00 0.00 55 1015.4
20260508175618 66 278 3.0 3.0 0.00 0.00 0.00 55 1015.8
20260508175115 66 262 4.0 5.0 0.00 0.00 0.00 53 1015.9
20260508174612 66 303 2.0 2.0 0.00 0.00 0.00 56 1015.9
20260508174109 66 240 4.0 5.0 0.00 0.00 0.00 56 1016.0
20260508173606 65 272 3.0 5.0 0.00 0.00 0.00 54 1015.9
20260508173102 65 274 3.0 3.0 0.00 0.00 0.00 54 1016.2
20260508172600 65 270 1.0 1.0 0.00 0.00 0.00 56 1016.1
20260508172056 65 266 7.0 9.0 0.00 0.00 0.00 54 1016.3
20260508171552 66 270 3.0 3.0 0.00 0.00 0.00 55 1016.4
20260508171049 66 280 2.0 2.0 0.00 0.00 0.00 54 1016.2
20260508170546 66 255 6.0 8.0 0.00 0.00 0.00 54 1016.6
20260508170044 66 248 3.0 5.0 0.00 0.00 0.00 53 1016.4
20260508165541 66 263 3.0 5.0 0.00 0.00 0.00 54 1016.7
20260508165038 66 248 5.0 6.0 0.00 0.00 0.00 53 1016.6
20260508164534 66 253 2.0 2.0 0.00 0.00 0.00 54 1016.9
20260508164031 66 248 3.0 5.0 0.00 0.00 0.00 54 1016.9
20260508163528 66 292 2.0 2.0 0.00 0.00 0.00 54 1017.0
20260508163025 66 273 2.0 2.0 0.00 0.00 0.00 55 1016.9
20260508162522 66 274 3.0 3.0 0.00 0.00 0.00 56 1017.1
20260508162019 65 252 4.0 5.0 0.00 0.00 0.00 54 1017.1
20260508161516 65 262 5.0 6.0 0.00 0.00 0.00 54 1016.9
20260508161013 65 286 4.0 6.0 0.00 0.00 0.00 56 1016.8
20260508160512 65 272 3.0 3.0 0.00 0.00 0.00 56 1017.1
20260508160008 65 270 2.0 2.0 0.00 0.00 0.00 55 1017.1
20260508155505 65 275 3.0 3.0 0.00 0.00 0.00 55 1017.2
20260508155002 65 256 2.0 2.0 0.00 0.00 0.00 54 1017.2
20260508154459 64 266 2.0 2.0 0.00 0.00 0.00 55 1017.4
20260508153955 64 287 9.0 13.0 0.00 0.00 0.00 55 1017.2
20260508153452 64 261 4.0 5.0 0.00 0.00 0.00 56 1017.4
20260508152949 63 288 7.0 10.0 0.00 0.00 0.00 57 1017.5
20260508152446 63 273 3.0 3.0 0.00 0.00 0.00 57 1017.5
20260508151942 62 258 4.0 6.0 0.00 0.00 0.00 58 1017.4
20260508151439 61 264 1.0 2.0 0.00 0.00 0.00 60 1017.5
20260508150935 61 270 4.0 5.0 0.00 0.00 0.00 61 1017.6
20260508150432 61 257 2.0 3.0 0.00 0.00 0.00 61 1017.7
20260508145928 61 273 2.0 2.0 0.00 0.00 0.00 60 1017.6
20260508145425 61 267 2.0 2.0 0.00 0.00 0.00 61 1017.7
20260508144921 61 275 1.0 2.0 0.00 0.00 0.00 61 1017.6
20260508144419 61 307 0.0 0.0 0.00 0.00 0.00 62 1017.8
20260508143916 60 283 2.0 3.0 0.00 0.00 0.00 61 1017.8
20260508143414 60 285 1.0 2.0 0.00 0.00 0.00 61 1017.8
20260508142910 60 246 3.0 3.0 0.00 0.00 0.00 62 1017.7
20260508142407 59 283 1.0 1.0 0.00 0.00 0.00 63 1017.9
20260508141903 58 268 3.0 3.0 0.00 0.00 0.00 63 1018.0
20260508141400 58 269 2.0 3.0 0.00 0.00 0.00 65 1017.9
20260508140858 57 264 3.0 3.0 0.00 0.00 0.00 64 1018.2
20260508140355 57 283 3.0 5.0 0.00 0.00 0.00 63 1018.0
20260508135850 57 269 2.0 2.0 0.00 0.00 0.00 64 1018.1
20260508135347 57 265 1.0 1.0 0.00 0.00 0.00 63 1018.1
20260508134843 57 292 0.0 0.0 0.00 0.00 0.00 65 1018.4
20260508134340 57 262 3.0 3.0 0.00 0.00 0.00 65 1018.2
20260508133837 56 276 5.0 6.0 0.00 0.00 0.00 63 1018.1
20260508133335 56 288 5.0 6.0 0.00 0.00 0.00 64 1018.1
20260508132831 56 260 1.0 2.0 0.00 0.00 0.00 66 1018.1
20260508132329 55 272 2.0 2.0 0.00 0.00 0.00 65 1018.3
20260508131826 55 281 2.0 2.0 0.00 0.00 0.00 65 1018.2
20260508131321 55 282 1.0 2.0 0.00 0.00 0.00 65 1018.3
20260508130818 55 277 3.0 5.0 0.00 0.00 0.00 65 1018.0
20260508130315 55 278 1.0 2.0 0.00 0.00 0.00 66 1018.1
20260508125811 54 264 1.0 2.0 0.00 0.00 0.00 68 1018.0
20260508125308 54 284 2.0 3.0 0.00 0.00 0.00 67 1018.1
20260508124806 54 283 2.0 2.0 0.00 0.00 0.00 67 1018.1
20260508124302 53 278 1.0 1.0 0.00 0.00 0.00 68 1018.0
20260508123801 53 296 3.0 3.0 0.00 0.00 0.00 69 1018.0
20260508123258 53 281 1.0 1.0 0.00 0.00 0.00 71 1018.1
20260508122754 52 262 1.0 2.0 0.00 0.00 0.00 69 1017.9
20260508122252 52 276 2.0 2.0 0.00 0.00 0.00 71 1018.2
20260508121749 51 288 1.0 1.0 0.00 0.00 0.00 71 1018.0
20260508121248 51 293 1.0 1.0 0.00 0.00 0.00 71 1018.2
20260508120744 51 279 1.0 2.0 0.00 0.00 0.00 71 1017.8
20260508120243 51 300 1.0 1.0 0.00 0.00 0.00 72 1018.1
20260508115739 50 306 1.0 1.0 0.00 0.00 0.00 73 1018.2
20260508115237 50 292 1.0 1.0 0.00 0.00 0.00 74 1018.0
20260508114733 49 301 0.0 0.0 0.00 0.00 0.00 74 1018.0
20260508114230 49 304 1.0 1.0 0.00 0.00 0.00 76 1018.0
20260508113726 49 310 0.0 0.0 0.00 0.00 0.00 78 1017.9
20260508113225 49 302 1.0 1.0 0.00 0.00 0.00 77 1017.7
20260508112721 48 310 0.0 0.0 0.00 0.00 0.00 76 1017.9
20260508112218 48 308 0.0 0.0 0.00 0.00 0.00 76 1017.7
20260508111715 48 311 0.0 0.0 0.00 0.00 0.00 77 1017.6
20260508111212 48 308 0.0 0.0 0.00 0.00 0.00 76 1017.6
20260508110709 48 299 0.0 0.0 0.00 0.00 0.00 76 1017.7
20260508110206 48 304 0.0 0.0 0.00 0.00 0.00 76 1017.6
20260508105706 48 304 0.0 0.0 0.00 0.00 0.00 75 1017.4
20260508105203 48 299 0.0 0.0 0.00 0.00 0.00 76 1017.3
20260508104701 48 303 0.0 1.0 0.00 0.00 0.00 75 1017.5
20260508104157 48 299 0.0 0.0 0.00 0.00 0.00 75 1017.5
20260508103654 48 298 0.0 0.0 0.00 0.00 0.00 75 1017.5
20260508103152 48 300 0.0 0.0 0.00 0.00 0.00 75 1017.4
20260508102649 48 293 0.0 0.0 0.00 0.00 0.00 76 1017.2
20260508102147 48 301 1.0 1.0 0.00 0.00 0.00 76 1017.3
20260508101643 48 304 0.0 1.0 0.00 0.00 0.00 76 1017.6
20260508101141 48 304 0.0 0.0 0.00 0.00 0.00 76 1017.5
20260508100638 47 310 0.0 0.0 0.00 0.00 0.00 77 1017.6
20260508100137 47 311 0.0 0.0 0.00 0.00 0.00 77 1017.5
20260508095633 47 314 0.0 0.0 0.00 0.00 0.00 78 1017.5
20260508095130 47 317 0.0 0.0 0.00 0.00 0.00 78 1017.4
20260508094627 46 320 0.0 0.0 0.00 0.00 0.00 78 1017.4
20260508094123 46 321 0.0 0.0 0.00 0.00 0.00 80 1017.5
20260508093621 45 321 0.0 0.0 0.00 0.00 0.00 83 1017.8
20260508093119 45 321 0.0 0.0 0.00 0.00 0.00 83 1017.5
20260508092615 45 321 0.0 0.0 0.00 0.00 0.00 83 1017.7
20260508092114 45 320 0.0 0.0 0.00 0.00 0.00 82 1017.6
20260508091611 45 321 0.0 0.0 0.00 0.00 0.00 83 1017.7
20260508091108 46 321 0.0 0.0 0.00 0.00 0.00 82 1017.5
20260508090606 46 320 0.0 0.0 0.00 0.00 0.00 82 1017.6
20260508085559 46 319 0.0 0.0 0.00 0.00 0.00 81 1017.6
20260508085056 45 318 0.0 0.0 0.00 0.00 0.00 82 1017.6
20260508084553 45 321 0.0 0.0 0.00 0.00 0.00 84 1017.7
20260508084050 44 321 0.0 0.0 0.00 0.00 0.00 84 1017.6
20260508083547 44 321 0.0 0.0 0.00 0.00 0.00 85 1017.7
20260508083044 44 321 0.0 0.0 0.00 0.00 0.00 85 1017.7
20260508082540 44 321 0.0 0.0 0.00 0.00 0.00 84 1017.8
20260508082037 44 321 0.0 0.0 0.00 0.00 0.00 84 1017.6
20260508081535 45 321 0.0 0.0 0.00 0.00 0.00 83 1017.8
20260508081030 45 321 0.0 0.0 0.00 0.00 0.00 83 1017.8
20260508080529 45 316 0.0 0.0 0.00 0.00 0.00 82 1017.4
20260508080026 45 313 0.0 0.0 0.00 0.00 0.00 82 1017.4
20260508075522 46 313 0.0 0.0 0.00 0.00 0.00 80 1017.5
20260508075020 46 312 0.0 1.0 0.00 0.00 0.00 80 1017.7
20260508074517 45 314 0.0 1.0 0.00 0.00 0.00 81 1017.4
20260508074014 46 313 0.0 0.0 0.00 0.00 0.00 81 1017.6
20260508073511 46 314 0.0 0.0 0.00 0.00 0.00 80 1017.4
20260508073009 47 313 0.0 0.0 0.00 0.00 0.00 79 1017.6
20260508072504 47 310 0.0 0.0 0.00 0.00 0.00 77 1017.6
20260508072002 47 305 0.0 0.0 0.00 0.00 0.00 76 1017.7
20260508071500 47 302 0.0 0.0 0.00 0.00 0.00 75 1017.7
20260508070957 48 288 1.0 2.0 0.00 0.00 0.00 75 1017.9
20260508070454 48 282 1.0 2.0 0.00 0.00 0.00 74 1017.6
20260508065952 48 282 1.0 2.0 0.00 0.00 0.00 74 1017.9
20260508065450 48 295 0.0 1.0 0.00 0.00 0.00 74 1017.7
20260508064948 48 292 1.0 1.0 0.00 0.00 0.00 73 1017.7
20260508064445 48 293 1.0 1.0 0.00 0.00 0.00 73 1018.0
20260508063943 48 301 0.0 0.0 0.00 0.00 0.00 74 1018.0
20260508063440 48 294 0.0 1.0 0.00 0.00 0.00 73 1018.2
20260508062937 48 289 1.0 1.0 0.00 0.00 0.00 72 1018.1
20260508062430 49 292 0.0 1.0 0.00 0.00 0.00 72 1018.0
20260508061927 49 286 1.0 2.0 0.00 0.00 0.00 72 1018.1
20260508061424 49 292 1.0 1.0 0.00 0.00 0.00 72 1018.1
20260508060920 49 282 1.0 2.0 0.00 0.00 0.00 71 1018.0
20260508060418 49 295 1.0 1.0 0.00 0.00 0.00 71 1018.0
20260508055913 49 298 1.0 1.0 0.00 0.00 0.00 72 1018.1
20260508055410 49 293 0.0 1.0 0.00 0.00 0.00 72 1018.2
20260508054907 48 294 1.0 1.0 0.00 0.00 0.00 73 1018.1
20260508054404 48 296 1.0 2.0 0.00 0.00 0.00 73 1017.9
20260508053901 49 298 1.0 1.0 0.00 0.00 0.00 73 1018.3
20260508053358 49 298 0.0 1.0 0.00 0.00 0.00 73 1018.3
20260508052856 49 294 1.0 1.0 0.00 0.00 0.00 72 1018.2
20260508052353 49 298 1.0 1.0 0.00 0.00 0.00 72 1018.2
20260508051849 49 301 1.0 1.0 0.00 0.00 0.00 72 1018.2
20260508051345 49 309 0.0 0.0 0.00 0.00 0.00 73 1018.2
20260508050841 48 311 1.0 1.0 0.00 0.00 0.00 73 1018.1
20260508050338 48 312 0.0 1.0 0.00 0.00 0.00 72 1018.4
20260508045834 49 313 1.0 1.0 0.00 0.00 0.00 73 1018.0
20260508045332 49 314 1.0 1.0 0.00 0.00 0.00 71 1018.0
20260508044829 48 318 0.0 1.0 0.00 0.00 0.00 73 1018.2
20260508044325 48 321 1.0 1.0 0.00 0.00 0.00 74 1018.4
20260508043822 48 334 0.0 0.0 0.00 0.00 0.00 74 1018.4
20260508043319 48 334 0.0 0.0 0.00 0.00 0.00 74 1018.1
20260508042816 48 334 0.0 0.0 0.00 0.00 0.00 76 1018.1
20260508042314 48 334 0.0 0.0 0.00 0.00 0.00 75 1018.0
20260508041810 48 334 0.0 0.0 0.00 0.00 0.00 75 1018.3
20260508041306 48 334 0.0 0.0 0.00 0.00 0.00 75 1018.0
20260508040803 48 334 0.0 1.0 0.00 0.00 0.00 74 1018.2
20260508040301 49 334 0.0 0.0 0.00 0.00 0.00 76 1018.1
20260508035758 49 334 0.0 0.0 0.00 0.00 0.00 72 1018.0
20260508035255 49 335 0.0 1.0 0.00 0.00 0.00 73 1018.2
20260508034751 49 334 1.0 1.0 0.00 0.00 0.00 71 1017.9
20260508034249 49 332 0.0 0.0 0.00 0.00 0.00 72 1018.0
20260508033746 49 331 0.0 0.0 0.00 0.00 0.00 72 1017.9
20260508033244 50 332 1.0 1.0 0.00 0.00 0.00 69 1018.1
20260508032741 50 322 0.0 0.0 0.00 0.00 0.00 72 1018.0
20260508032238 50 322 0.0 0.0 0.00 0.00 0.00 71 1018.0
20260508031735 50 318 0.0 0.0 0.00 0.00 0.00 69 1018.2
20260508031231 50 315 0.0 0.0 0.00 0.00 0.00 68 1018.1
20260508030728 51 310 1.0 1.0 0.00 0.00 0.00 67 1018.1
20260508030225 51 320 0.0 0.0 0.00 0.00 0.00 68 1018.0
20260508025722 52 321 0.0 1.0 0.00 0.00 0.00 68 1017.9
20260508025219 52 320 0.0 1.0 0.00 0.00 0.00 63 1017.8
20260508024714 51 320 0.0 0.0 0.00 0.00 0.00 63 1017.8
20260508024212 51 325 0.0 0.0 0.00 0.00 0.00 68 1017.9
20260508023708 50 325 0.0 0.0 0.00 0.00 0.00 69 1017.8
20260508023206 50 325 0.0 0.0 0.00 0.00 0.00 69 1017.8
20260508022701 50 326 0.0 0.0 0.00 0.00 0.00 70 1018.0
20260508022159 51 325 0.0 0.0 0.00 0.00 0.00 69 1017.7
20260508021655 51 324 0.0 0.0 0.00 0.00 0.00 68 1018.0
20260508021150 51 324 0.0 0.0 0.00 0.00 0.00 69 1017.7
20260508020648 51 324 0.0 0.0 0.00 0.00 0.00 67 1017.7
20260508020145 51 324 0.0 0.0 0.00 0.00 0.00 67 1017.7
20260508015643 51 322 0.0 0.0 0.00 0.00 0.00 67 1017.6
20260508015140 51 322 0.0 0.0 0.00 0.00 0.00 69 1018.0
20260508014636 51 322 0.0 0.0 0.00 0.00 0.00 69 1017.9
20260508014132 51 322 0.0 0.0 0.00 0.00 0.00 67 1017.8
20260508013629 51 322 0.0 0.0 0.00 0.00 0.00 67 1017.9
20260508013126 51 322 0.0 0.0 0.00 0.00 0.00 67 1017.8
20260508012623 51 321 0.0 0.0 0.00 0.00 0.00 66 1017.9
20260508012120 51 321 0.0 0.0 0.00 0.00 0.00 69 1017.9
20260508011619 51 321 0.0 0.0 0.00 0.00 0.00 69 1017.9
20260508011115 51 320 0.0 0.0 0.00 0.00 0.00 68 1017.8
20260508010612 52 320 0.0 0.0 0.00 0.00 0.00 66 1017.6
20260508010110 52 317 0.0 0.0 0.00 0.00 0.00 65 1017.9
20260508005606 53 317 0.0 0.0 0.00 0.00 0.00 64 1017.8
20260508005103 53 317 0.0 0.0 0.00 0.00 0.00 61 1018.0
20260508004559 53 317 0.0 0.0 0.00 0.00 0.00 64 1018.0
20260508004056 53 317 0.0 0.0 0.00 0.00 0.00 63 1017.9
20260508003552 53 316 0.0 0.0 0.00 0.00 0.00 63 1018.0
20260508003050 53 317 0.0 0.0 0.00 0.00 0.00 65 1017.8
20260508002546 54 316 0.0 0.0 0.00 0.00 0.00 65 1017.6
20260508002044 54 315 0.0 0.0 0.00 0.00 0.00 61 1017.5
20260508001539 55 312 0.0 0.0 0.00 0.00 0.00 63 1017.5
20260508001035 55 304 0.0 1.0 0.00 0.00 0.00 53 1017.6
20260508000531 55 316 0.0 0.0 0.00 0.00 0.00 62 1017.5
20260508000029 56 315 1.0 1.0 0.00 0.00 0.00 58 1017.4
20260507235525 57 298 1.0 1.0 0.00 0.00 0.00 50 1017.5
20260507235023 57 288 1.0 1.0 0.00 0.00 0.00 47 1017.5
20260507234519 58 293 1.0 1.0 0.00 0.00 0.00 48 1017.5
20260507234016 58 294 1.0 1.0 0.00 0.00 0.00 49 1017.6
20260507233513 58 292 1.0 1.0 0.00 0.00 0.00 48 1017.4
20260507233011 58 311 1.0 1.0 0.00 0.00 0.00 47 1017.4
20260507232507 58 299 0.0 1.0 0.00 0.00 0.00 49 1017.4
20260507232005 58 298 1.0 1.0 0.00 0.00 0.00 46 1017.4
20260507231501 59 299 0.0 1.0 0.00 0.00 0.00 46 1017.5
20260507230958 59 320 0.0 1.0 0.00 0.00 0.00 49 1017.4
20260507230455 59 298 0.0 1.0 0.00 0.00 0.00 46 1017.5
20260507225950 59 293 1.0 1.0 0.00 0.00 0.00 49 1017.4
20260507225447 59 293 1.0 1.0 0.00 0.00 0.00 48 1017.6
20260507224943 59 289 1.0 1.0 0.00 0.00 0.00 46 1017.4
20260507224439 59 299 0.0 0.0 0.00 0.00 0.00 46 1017.4
20260507223936 59 276 1.0 1.0 0.00 0.00 0.00 46 1017.4
20260507223432 59 298 1.0 1.0 0.00 0.00 0.00 50 1017.3
20260507222929 59 292 1.0 1.0 0.00 0.00 0.00 48 1017.2
20260507222426 59 289 0.0 0.0 0.00 0.00 0.00 47 1017.4
20260507221922 59 250 3.0 3.0 0.00 0.00 0.00 46 1017.5
20260507221419 60 276 1.0 2.0 0.00 0.00 0.00 47 1017.8
20260507220914 60 312 1.0 1.0 0.00 0.00 0.00 47 1017.7
20260507220413 60 288 2.0 2.0 0.00 0.00 0.00 46 1017.7
20260507215909 60 324 2.0 2.0 0.00 0.00 0.00 46 1017.8
20260507215406 60 322 0.0 0.0 0.00 0.00 0.00 50 1017.8
20260507214903 60 320 0.0 1.0 0.00 0.00 0.00 44 1017.9
20260507214401 60 337 2.0 3.0 0.00 0.00 0.00 44 1018.0
20260507213856 60 304 1.0 1.0 0.00 0.00 0.00 48 1017.9
20260507213353 60 288 0.0 1.0 0.00 0.00 0.00 46 1017.8
20260507212850 60 265 3.0 5.0 0.00 0.00 0.00 48 1017.7
20260507212346 60 274 2.0 2.0 0.00 0.00 0.00 45 1017.7
20260507211842 60 225 3.0 5.0 0.00 0.00 0.00 45 1017.9
20260507211339 59 287 3.0 3.0 0.00 0.00 0.00 48 1017.6
20260507210836 58 263 2.0 3.0 0.00 0.00 0.00 49 1017.9
20260507210333 58 283 2.0 2.0 0.00 0.00 0.00 50 1017.8